Year,Month,Day,Hour,Minute,Value (Times are PST for temperature in C)
2023,04,16,00,00,7.40
2023,04,16,00,01,7.40
2023,04,16,00,02,7.40
2023,04,16,00,03,7.40
2023,04,16,00,04,7.40
2023,04,16,00,05,7.40
2023,04,16,00,06,7.40
2023,04,16,00,07,7.40
2023,04,16,00,08,7.40
2023,04,16,00,09,7.40
2023,04,16,00,10,7.40
2023,04,16,00,11,7.40
2023,04,16,00,12,7.40
2023,04,16,00,13,7.40
2023,04,16,00,14,7.40
2023,04,16,00,15,7.40
2023,04,16,00,16,7.40
2023,04,16,00,17,7.40
2023,04,16,00,18,7.40
2023,04,16,00,19,7.40
2023,04,16,00,20,7.40
2023,04,16,00,21,7.40
2023,04,16,00,22,7.40
2023,04,16,00,23,7.40
2023,04,16,00,24,7.40
2023,04,16,00,25,7.40
2023,04,16,00,26,7.40
2023,04,16,00,27,7.40
2023,04,16,00,28,7.40
2023,04,16,00,29,7.40
2023,04,16,00,30,7.40
2023,04,16,00,31,7.40
2023,04,16,00,32,7.40
2023,04,16,00,33,7.40
2023,04,16,00,34,7.40
2023,04,16,00,35,7.40
2023,04,16,00,36,7.40
2023,04,16,00,37,7.40
2023,04,16,00,38,7.40
2023,04,16,00,39,7.40
2023,04,16,00,40,7.40
2023,04,16,00,41,7.40
2023,04,16,00,42,7.40
2023,04,16,00,43,7.40
2023,04,16,00,44,7.40
2023,04,16,00,45,7.40
2023,04,16,00,46,7.40
2023,04,16,00,47,7.40
2023,04,16,00,48,7.40
2023,04,16,00,49,7.30
2023,04,16,00,50,7.40
2023,04,16,00,51,7.30
2023,04,16,00,52,7.30
2023,04,16,00,53,7.30
2023,04,16,00,54,7.30
2023,04,16,00,55,7.30
2023,04,16,00,56,7.30
2023,04,16,00,57,7.30
2023,04,16,00,58,7.30
2023,04,16,00,59,7.30
2023,04,16,01,00,7.30
2023,04,16,01,01,7.30
2023,04,16,01,02,7.30
2023,04,16,01,03,7.30
2023,04,16,01,04,7.30
2023,04,16,01,05,7.30
2023,04,16,01,06,7.30
2023,04,16,01,07,7.30
2023,04,16,01,08,7.30
2023,04,16,01,09,7.30
2023,04,16,01,10,7.30
2023,04,16,01,11,7.30
2023,04,16,01,12,7.30
2023,04,16,01,13,7.30
2023,04,16,01,14,7.30
2023,04,16,01,15,7.30
2023,04,16,01,16,7.30
2023,04,16,01,17,7.30
2023,04,16,01,18,7.30
2023,04,16,01,19,7.30
2023,04,16,01,20,7.30
2023,04,16,01,21,7.30
2023,04,16,01,22,7.30
2023,04,16,01,23,7.30
2023,04,16,01,24,7.30
2023,04,16,01,25,7.30
2023,04,16,01,26,7.40
2023,04,16,01,27,7.40
2023,04,16,01,28,7.30
2023,04,16,01,29,7.30
2023,04,16,01,30,7.30
2023,04,16,01,31,7.40
2023,04,16,01,32,7.40
2023,04,16,01,33,7.40
2023,04,16,01,34,7.30
2023,04,16,01,35,7.30
2023,04,16,01,36,7.30
2023,04,16,01,37,7.30
2023,04,16,01,38,7.30
2023,04,16,01,39,7.30
2023,04,16,01,40,7.30
2023,04,16,01,41,7.30
2023,04,16,01,42,7.30
2023,04,16,01,43,7.30
2023,04,16,01,44,7.30
2023,04,16,01,45,7.30
2023,04,16,01,46,7.30
2023,04,16,01,47,7.30
2023,04,16,01,48,7.30
2023,04,16,01,49,7.30
2023,04,16,01,50,7.30
2023,04,16,01,51,7.30
2023,04,16,01,52,7.30
2023,04,16,01,53,7.30
2023,04,16,01,54,7.30
2023,04,16,01,55,7.30
2023,04,16,01,56,7.30
2023,04,16,01,57,7.30
2023,04,16,01,58,7.30
2023,04,16,01,59,7.30
2023,04,16,02,00,7.30
2023,04,16,02,01,7.30
2023,04,16,02,02,7.30
2023,04,16,02,03,7.30
2023,04,16,02,04,7.20
2023,04,16,02,05,7.30
2023,04,16,02,06,7.20
2023,04,16,02,07,7.20
2023,04,16,02,08,7.20
2023,04,16,02,09,7.20
2023,04,16,02,10,7.20
2023,04,16,02,11,7.20
2023,04,16,02,12,7.20
2023,04,16,02,13,7.20
2023,04,16,02,14,7.20
2023,04,16,02,15,7.20
2023,04,16,02,16,7.20
2023,04,16,02,17,7.20
2023,04,16,02,18,7.20
2023,04,16,02,19,7.20
2023,04,16,02,20,7.20
2023,04,16,02,21,7.10
2023,04,16,02,22,7.10
2023,04,16,02,23,7.10
2023,04,16,02,24,7.10
2023,04,16,02,25,7.10
2023,04,16,02,26,7.10
2023,04,16,02,27,7.10
2023,04,16,02,28,7.10
2023,04,16,02,29,7.10
2023,04,16,02,30,7.10
2023,04,16,02,31,7.00
2023,04,16,02,32,7.00
2023,04,16,02,33,7.00
2023,04,16,02,34,7.00
2023,04,16,02,35,6.90
2023,04,16,02,36,7.00
2023,04,16,02,37,7.00
2023,04,16,02,38,6.90
2023,04,16,02,39,6.90
2023,04,16,02,40,6.90
2023,04,16,02,41,6.90
2023,04,16,02,42,6.90
2023,04,16,02,43,6.90
2023,04,16,02,44,6.90
2023,04,16,02,45,6.90
2023,04,16,02,46,6.90
2023,04,16,02,47,6.90
2023,04,16,02,48,6.90
2023,04,16,02,49,6.90
2023,04,16,02,50,6.90
2023,04,16,02,51,6.80
2023,04,16,02,52,6.80
2023,04,16,02,53,6.80
2023,04,16,02,54,6.80
2023,04,16,02,55,6.80
2023,04,16,02,56,6.80
2023,04,16,02,57,6.80
2023,04,16,02,58,6.80
2023,04,16,02,59,6.80
2023,04,16,03,00,6.80
2023,04,16,03,01,6.80
2023,04,16,03,02,6.80
2023,04,16,03,03,6.80
2023,04,16,03,04,6.80
2023,04,16,03,05,6.80
2023,04,16,03,06,6.80
2023,04,16,03,07,6.80
2023,04,16,03,08,6.80
2023,04,16,03,09,6.80
2023,04,16,03,10,6.80
2023,04,16,03,11,6.80
2023,04,16,03,12,6.70
2023,04,16,03,13,6.70
2023,04,16,03,14,6.80
2023,04,16,03,15,6.70
2023,04,16,03,16,6.70
2023,04,16,03,17,6.70
2023,04,16,03,18,6.70
2023,04,16,03,19,6.70
2023,04,16,03,20,6.70
2023,04,16,03,21,6.70
2023,04,16,03,22,6.70
2023,04,16,03,23,6.70
2023,04,16,03,24,6.70
2023,04,16,03,25,6.70
2023,04,16,03,26,6.70
2023,04,16,03,27,6.70
2023,04,16,03,28,6.70
2023,04,16,03,29,6.70
2023,04,16,03,30,6.70
2023,04,16,03,31,6.70
2023,04,16,03,32,6.70
2023,04,16,03,33,6.70
2023,04,16,03,34,6.70
2023,04,16,03,35,6.70
2023,04,16,03,36,6.70
2023,04,16,03,37,6.70
2023,04,16,03,38,6.70
2023,04,16,03,39,6.70
2023,04,16,03,40,6.70
2023,04,16,03,41,6.60
2023,04,16,03,42,6.60
2023,04,16,03,43,6.60
2023,04,16,03,44,6.60
2023,04,16,03,45,6.60
2023,04,16,03,46,6.60
2023,04,16,03,47,6.60
2023,04,16,03,48,6.60
2023,04,16,03,49,6.60
2023,04,16,03,50,6.60
2023,04,16,03,51,6.60
2023,04,16,03,52,6.60
2023,04,16,03,53,6.60
2023,04,16,03,54,6.60
2023,04,16,03,55,6.60
2023,04,16,03,56,6.60
2023,04,16,03,57,6.70
2023,04,16,03,58,6.70
2023,04,16,03,59,6.70
2023,04,16,04,00,6.70
2023,04,16,04,01,6.70
2023,04,16,04,02,6.70
2023,04,16,04,03,6.70
2023,04,16,04,04,6.70
2023,04,16,04,05,6.70
2023,04,16,04,06,6.70
2023,04,16,04,07,6.70
2023,04,16,04,08,6.70
2023,04,16,04,09,6.70
2023,04,16,04,10,6.70
2023,04,16,04,11,6.70
2023,04,16,04,12,6.70
2023,04,16,04,13,6.70
2023,04,16,04,14,6.70
2023,04,16,04,15,6.70
2023,04,16,04,16,6.70
2023,04,16,04,17,6.70
2023,04,16,04,18,6.70
2023,04,16,04,19,6.70
2023,04,16,04,20,6.70
2023,04,16,04,21,6.70
2023,04,16,04,22,6.70
2023,04,16,04,23,6.70
2023,04,16,04,24,6.70
2023,04,16,04,25,6.70
2023,04,16,04,26,6.70
2023,04,16,04,27,6.70
2023,04,16,04,28,6.70
2023,04,16,04,29,6.70
2023,04,16,04,30,6.70
2023,04,16,04,31,6.70
2023,04,16,04,32,6.70
2023,04,16,04,33,6.70
2023,04,16,04,34,6.70
2023,04,16,04,35,6.70
2023,04,16,04,36,6.70
2023,04,16,04,37,6.70
2023,04,16,04,38,6.70
2023,04,16,04,39,6.70
2023,04,16,04,40,6.70
2023,04,16,04,41,6.70
2023,04,16,04,42,6.70
2023,04,16,04,43,6.70
2023,04,16,04,44,6.70
2023,04,16,04,45,6.70
2023,04,16,04,46,6.70
2023,04,16,04,47,6.70
2023,04,16,04,48,6.70
2023,04,16,04,49,6.70
2023,04,16,04,50,6.70
2023,04,16,04,51,6.70
2023,04,16,04,52,6.70
2023,04,16,04,53,6.70
2023,04,16,04,54,6.70
2023,04,16,04,55,6.70
2023,04,16,04,56,6.70
2023,04,16,04,57,6.70
2023,04,16,04,58,6.70
2023,04,16,04,59,6.70
2023,04,16,05,00,6.70
2023,04,16,05,01,6.70
2023,04,16,05,02,6.70
2023,04,16,05,03,6.70
2023,04,16,05,04,6.70
2023,04,16,05,05,6.70
2023,04,16,05,06,6.70
2023,04,16,05,07,6.70
2023,04,16,05,08,6.70
2023,04,16,05,09,6.70
2023,04,16,05,10,6.70
2023,04,16,05,11,6.70
2023,04,16,05,12,6.70
2023,04,16,05,13,6.70
2023,04,16,05,14,6.70
2023,04,16,05,15,6.70
2023,04,16,05,16,6.70
2023,04,16,05,17,6.70
2023,04,16,05,18,6.70
2023,04,16,05,19,6.70
2023,04,16,05,20,6.70
2023,04,16,05,21,6.70
2023,04,16,05,22,6.70
2023,04,16,05,23,6.70
2023,04,16,05,24,6.70
2023,04,16,05,25,6.70
2023,04,16,05,26,6.70
2023,04,16,05,27,6.70
2023,04,16,05,28,6.70
2023,04,16,05,29,6.70
2023,04,16,05,30,6.70
2023,04,16,05,31,6.70
2023,04,16,05,32,6.70
2023,04,16,05,33,6.70
2023,04,16,05,34,6.70
2023,04,16,05,35,6.70
2023,04,16,05,36,6.70
2023,04,16,05,37,6.70
2023,04,16,05,38,6.70
2023,04,16,05,39,6.70
2023,04,16,05,40,6.70
2023,04,16,05,41,6.60
2023,04,16,05,42,6.60
2023,04,16,05,43,6.70
2023,04,16,05,44,6.70
2023,04,16,05,45,6.70
2023,04,16,05,46,6.60
2023,04,16,05,47,6.70
2023,04,16,05,48,6.60
2023,04,16,05,49,6.70
2023,04,16,05,50,6.70
2023,04,16,05,51,6.70
2023,04,16,05,52,6.70
2023,04,16,05,53,6.70
2023,04,16,05,54,6.70
2023,04,16,05,55,6.70
2023,04,16,05,56,6.70
2023,04,16,05,57,6.70
2023,04,16,05,58,6.70
2023,04,16,05,59,6.70
2023,04,16,06,00,6.70
2023,04,16,06,01,6.70
2023,04,16,06,02,6.70
2023,04,16,06,03,6.70
2023,04,16,06,04,6.70
2023,04,16,06,05,6.70
2023,04,16,06,06,6.70
2023,04,16,06,07,6.70
2023,04,16,06,08,6.70
2023,04,16,06,09,6.70
2023,04,16,06,10,6.70
2023,04,16,06,11,6.70
2023,04,16,06,12,6.70
2023,04,16,06,13,6.70
2023,04,16,06,14,6.70
2023,04,16,06,15,6.70
2023,04,16,06,16,6.70
2023,04,16,06,17,6.70
2023,04,16,06,18,6.70
2023,04,16,06,19,6.80
2023,04,16,06,20,6.80
2023,04,16,06,21,6.80
2023,04,16,06,22,6.80
2023,04,16,06,23,6.80
2023,04,16,06,24,6.80
2023,04,16,06,25,6.80
2023,04,16,06,26,6.80
2023,04,16,06,27,6.80
2023,04,16,06,28,6.80
2023,04,16,06,29,6.80
2023,04,16,06,30,6.80
2023,04,16,06,31,6.80
2023,04,16,06,32,6.80
2023,04,16,06,33,6.80
2023,04,16,06,34,6.80
2023,04,16,06,35,6.80
2023,04,16,06,36,6.80
2023,04,16,06,37,6.80
2023,04,16,06,38,6.80
2023,04,16,06,39,6.80
2023,04,16,06,40,6.80
2023,04,16,06,41,6.80
2023,04,16,06,42,6.80
2023,04,16,06,43,6.80
2023,04,16,06,44,6.80
2023,04,16,06,45,6.80
2023,04,16,06,46,6.80
2023,04,16,06,47,6.80
2023,04,16,06,48,6.80
2023,04,16,06,49,6.80
2023,04,16,06,50,6.80
2023,04,16,06,51,6.80
2023,04,16,06,52,6.80
2023,04,16,06,53,6.80
2023,04,16,06,54,6.80
2023,04,16,06,55,6.80
2023,04,16,06,56,6.80
2023,04,16,06,57,6.80
2023,04,16,06,58,6.80
2023,04,16,06,59,6.80
2023,04,16,07,00,6.80
2023,04,16,07,01,6.80
2023,04,16,07,02,6.80
2023,04,16,07,03,6.80
2023,04,16,07,04,6.80
2023,04,16,07,05,6.80
2023,04,16,07,06,6.80
2023,04,16,07,07,6.80
2023,04,16,07,08,6.80
2023,04,16,07,09,6.80
2023,04,16,07,10,6.80
2023,04,16,07,11,6.90
2023,04,16,07,12,6.90
2023,04,16,07,13,6.90
2023,04,16,07,14,6.80
2023,04,16,07,15,6.90
2023,04,16,07,16,6.90
2023,04,16,07,17,6.90
2023,04,16,07,18,6.90
2023,04,16,07,19,6.90
2023,04,16,07,20,6.90
2023,04,16,07,21,6.90
2023,04,16,07,22,6.90
2023,04,16,07,23,6.90
2023,04,16,07,24,6.90
2023,04,16,07,25,6.90
2023,04,16,07,26,6.90
2023,04,16,07,27,6.90
2023,04,16,07,28,6.90
2023,04,16,07,29,6.90
2023,04,16,07,30,6.90
2023,04,16,07,31,6.90
2023,04,16,07,32,6.90
2023,04,16,07,33,6.90
2023,04,16,07,34,6.90
2023,04,16,07,35,6.90
2023,04,16,07,36,6.90
2023,04,16,07,37,6.90
2023,04,16,07,38,6.90
2023,04,16,07,39,6.90
2023,04,16,07,40,6.90
2023,04,16,07,41,6.90
2023,04,16,07,42,6.90
2023,04,16,07,43,6.90
2023,04,16,07,44,6.90
2023,04,16,07,45,6.90
2023,04,16,07,46,6.90
2023,04,16,07,47,6.90
2023,04,16,07,48,6.90
2023,04,16,07,49,6.90
2023,04,16,07,50,6.90
2023,04,16,07,51,6.90
2023,04,16,07,52,6.90
2023,04,16,07,53,6.90
2023,04,16,07,54,6.90
2023,04,16,07,55,6.90
2023,04,16,07,56,6.90
2023,04,16,07,57,6.90
2023,04,16,07,58,6.90
2023,04,16,07,59,6.90
2023,04,16,08,00,6.90
2023,04,16,08,01,6.90
2023,04,16,08,02,6.80
2023,04,16,08,03,6.80
2023,04,16,08,04,6.90
2023,04,16,08,05,6.90
2023,04,16,08,06,6.90
2023,04,16,08,07,6.90
2023,04,16,08,08,6.90
2023,04,16,08,09,6.90
2023,04,16,08,10,6.90
2023,04,16,08,11,6.90
2023,04,16,08,12,6.90
2023,04,16,08,13,6.90
2023,04,16,08,14,6.90
2023,04,16,08,15,6.90
2023,04,16,08,16,7.00
2023,04,16,08,17,7.00
2023,04,16,08,18,7.00
2023,04,16,08,19,7.00
2023,04,16,08,20,7.10
2023,04,16,08,21,7.00
2023,04,16,08,22,7.10
2023,04,16,08,23,7.10
2023,04,16,08,24,7.10
2023,04,16,08,25,7.10
2023,04,16,08,26,7.10
2023,04,16,08,27,7.10
2023,04,16,08,28,7.10
2023,04,16,08,29,7.10
2023,04,16,08,30,7.10
2023,04,16,08,31,7.20
2023,04,16,08,32,7.20
2023,04,16,08,33,7.10
2023,04,16,08,34,7.10
2023,04,16,08,35,7.10
2023,04,16,08,36,7.10
2023,04,16,08,37,7.10
2023,04,16,08,38,7.10
2023,04,16,08,39,7.10
2023,04,16,08,40,7.10
2023,04,16,08,41,7.10
2023,04,16,08,42,7.10
2023,04,16,08,43,7.10
2023,04,16,08,44,7.20
2023,04,16,08,45,7.10
2023,04,16,08,46,7.20
2023,04,16,08,47,7.20
2023,04,16,08,48,7.20
2023,04,16,08,49,7.20
2023,04,16,08,50,7.20
2023,04,16,08,51,7.20
2023,04,16,08,52,7.20
2023,04,16,08,53,7.20
2023,04,16,08,54,7.20
2023,04,16,08,55,7.20
2023,04,16,08,56,7.20
2023,04,16,08,57,7.20
2023,04,16,08,58,7.20
2023,04,16,08,59,7.20
2023,04,16,09,00,7.30
2023,04,16,09,01,7.30
2023,04,16,09,02,7.30
2023,04,16,09,03,7.30
2023,04,16,09,04,7.30
2023,04,16,09,05,7.30
2023,04,16,09,06,7.30
2023,04,16,09,07,7.30
2023,04,16,09,08,7.40
2023,04,16,09,09,7.40
2023,04,16,09,10,7.40
2023,04,16,09,11,7.40
2023,04,16,09,12,7.40
2023,04,16,09,13,7.50
2023,04,16,09,14,7.50
2023,04,16,09,15,7.50
2023,04,16,09,16,7.50
2023,04,16,09,17,7.50
2023,04,16,09,18,7.60
2023,04,16,09,19,7.60
2023,04,16,09,20,7.50
2023,04,16,09,21,7.60
2023,04,16,09,22,7.50
2023,04,16,09,23,7.50
2023,04,16,09,24,7.50
2023,04,16,09,25,7.60
2023,04,16,09,26,7.60
2023,04,16,09,27,7.60
2023,04,16,09,28,7.60
2023,04,16,09,29,7.60
2023,04,16,09,30,7.60
2023,04,16,09,31,7.60
2023,04,16,09,32,7.60
2023,04,16,09,33,7.60
2023,04,16,09,34,7.60
2023,04,16,09,35,7.60
2023,04,16,09,36,7.60
2023,04,16,09,37,7.60
2023,04,16,09,38,7.60
2023,04,16,09,39,7.60
2023,04,16,09,40,7.60
2023,04,16,09,41,7.60
2023,04,16,09,42,7.60
2023,04,16,09,43,7.60
2023,04,16,09,44,7.60
2023,04,16,09,45,7.60
2023,04,16,09,46,7.60
2023,04,16,09,47,7.60
2023,04,16,09,48,7.60
2023,04,16,09,49,7.60
2023,04,16,09,50,7.60
2023,04,16,09,51,7.60
2023,04,16,09,52,7.60
2023,04,16,09,53,7.60
2023,04,16,09,54,7.60
2023,04,16,09,55,7.70
2023,04,16,09,56,7.70
2023,04,16,09,57,7.70
2023,04,16,09,58,7.70
2023,04,16,09,59,7.70
2023,04,16,10,00,7.70
2023,04,16,10,01,7.70
2023,04,16,10,02,7.80
2023,04,16,10,03,7.80
2023,04,16,10,04,7.80
2023,04,16,10,05,7.80
2023,04,16,10,06,7.80
2023,04,16,10,07,7.80
2023,04,16,10,08,7.80
2023,04,16,10,09,7.80
2023,04,16,10,10,7.80
2023,04,16,10,11,7.90
2023,04,16,10,12,7.90
2023,04,16,10,13,7.90
2023,04,16,10,14,7.90
2023,04,16,10,15,7.90
2023,04,16,10,16,7.90
2023,04,16,10,17,8.00
2023,04,16,10,18,8.00
2023,04,16,10,19,8.00
2023,04,16,10,20,8.00
2023,04,16,10,21,8.10
2023,04,16,10,22,8.10
2023,04,16,10,23,8.10
2023,04,16,10,24,8.20
2023,04,16,10,25,8.20
2023,04,16,10,26,8.20
2023,04,16,10,27,8.20
2023,04,16,10,28,8.20
2023,04,16,10,29,8.30
2023,04,16,10,30,8.30
2023,04,16,10,31,8.30
2023,04,16,10,32,8.30
2023,04,16,10,33,8.30
2023,04,16,10,34,8.30
2023,04,16,10,35,8.30
2023,04,16,10,36,8.30
2023,04,16,10,37,8.30
2023,04,16,10,38,8.30
2023,04,16,10,39,8.30
2023,04,16,10,40,8.30
2023,04,16,10,41,8.30
2023,04,16,10,42,8.30
2023,04,16,10,43,8.30
2023,04,16,10,44,8.30
2023,04,16,10,45,8.30
2023,04,16,10,46,8.30
2023,04,16,10,47,8.20
2023,04,16,10,48,8.20
2023,04,16,10,49,8.20
2023,04,16,10,50,8.20
2023,04,16,10,51,8.20
2023,04,16,10,52,8.20
2023,04,16,10,53,8.20
2023,04,16,10,54,8.20
2023,04,16,10,55,8.20
2023,04,16,10,56,8.20
2023,04,16,10,57,8.30
2023,04,16,10,58,8.30
2023,04,16,10,59,8.30
2023,04,16,11,00,8.30
2023,04,16,11,01,8.30
2023,04,16,11,02,8.30
2023,04,16,11,03,8.30
2023,04,16,11,04,8.30
2023,04,16,11,05,8.30
2023,04,16,11,06,8.30
2023,04,16,11,07,8.20
2023,04,16,11,08,8.20
2023,04,16,11,09,8.20
2023,04,16,11,10,8.20
2023,04,16,11,11,8.20
2023,04,16,11,12,8.20
2023,04,16,11,13,8.20
2023,04,16,11,14,8.20
2023,04,16,11,15,8.20
2023,04,16,11,16,8.20
2023,04,16,11,17,8.30
2023,04,16,11,18,8.30
2023,04,16,11,19,8.30
2023,04,16,11,20,8.30
2023,04,16,11,21,8.30
2023,04,16,11,22,8.30
2023,04,16,11,23,8.30
2023,04,16,11,24,8.30
2023,04,16,11,25,8.30
2023,04,16,11,26,8.30
2023,04,16,11,27,8.30
2023,04,16,11,28,8.30
2023,04,16,11,29,8.30
2023,04,16,11,30,8.30
2023,04,16,11,31,8.40
2023,04,16,11,32,8.40
2023,04,16,11,33,8.40
2023,04,16,11,34,8.40
2023,04,16,11,35,8.40
2023,04,16,11,36,8.40
2023,04,16,11,37,8.40
2023,04,16,11,38,8.40
2023,04,16,11,39,8.40
2023,04,16,11,40,8.40
2023,04,16,11,41,8.40
2023,04,16,11,42,8.40
2023,04,16,11,43,8.30
2023,04,16,11,44,8.30
2023,04,16,11,45,8.30
2023,04,16,11,46,8.40
2023,04,16,11,47,8.40
2023,04,16,11,48,8.40
2023,04,16,11,49,8.30
2023,04,16,11,50,8.40
2023,04,16,11,51,8.40
2023,04,16,11,52,8.40
2023,04,16,11,53,8.40
2023,04,16,11,54,8.40
2023,04,16,11,55,8.40
2023,04,16,11,56,8.40
2023,04,16,11,57,8.40
2023,04,16,11,58,8.40
2023,04,16,11,59,8.40
2023,04,16,12,00,8.40
2023,04,16,12,01,8.40
2023,04,16,12,02,8.40
2023,04,16,12,03,8.40
2023,04,16,12,04,8.40
2023,04,16,12,05,8.50
2023,04,16,12,06,8.40
2023,04,16,12,07,8.40
2023,04,16,12,08,8.50
2023,04,16,12,09,8.50
2023,04,16,12,10,8.50
2023,04,16,12,11,8.50
2023,04,16,12,12,8.50
2023,04,16,12,13,8.50
2023,04,16,12,14,8.50
2023,04,16,12,15,8.50
2023,04,16,12,16,8.60
2023,04,16,12,17,8.60
2023,04,16,12,18,8.60
2023,04,16,12,19,8.60
2023,04,16,12,20,8.60
2023,04,16,12,21,8.60
2023,04,16,12,22,8.60
2023,04,16,12,23,8.60
2023,04,16,12,24,8.60
2023,04,16,12,25,8.60
2023,04,16,12,26,8.60
2023,04,16,12,27,8.70
2023,04,16,12,28,8.70
2023,04,16,12,29,8.70
2023,04,16,12,30,8.70
2023,04,16,12,31,8.70
2023,04,16,12,32,8.70
2023,04,16,12,33,8.70
2023,04,16,12,34,8.70
2023,04,16,12,35,8.70
2023,04,16,12,36,8.80
2023,04,16,12,37,8.80
2023,04,16,12,38,8.80
2023,04,16,12,39,8.80
2023,04,16,12,40,8.80
2023,04,16,12,41,8.80
2023,04,16,12,42,8.90
2023,04,16,12,43,8.90
2023,04,16,12,44,8.90
2023,04,16,12,45,8.90
2023,04,16,12,46,8.90
2023,04,16,12,47,9.00
2023,04,16,12,48,9.00
2023,04,16,12,49,9.00
2023,04,16,12,50,9.00
2023,04,16,12,51,9.00
2023,04,16,12,52,9.00
2023,04,16,12,53,9.00
2023,04,16,12,54,9.10
2023,04,16,12,55,9.10
2023,04,16,12,56,9.10
2023,04,16,12,57,9.10
2023,04,16,12,58,9.10
2023,04,16,12,59,9.10
2023,04,16,13,00,9.10
2023,04,16,13,01,9.10
2023,04,16,13,02,9.10
2023,04,16,13,03,9.10
2023,04,16,13,04,9.10
2023,04,16,13,05,9.10
2023,04,16,13,06,9.10
2023,04,16,13,07,9.20
2023,04,16,13,08,9.20
2023,04,16,13,09,9.20
2023,04,16,13,10,9.20
2023,04,16,13,11,9.20
2023,04,16,13,12,9.20
2023,04,16,13,13,9.20
2023,04,16,13,14,9.20
2023,04,16,13,15,9.20
2023,04,16,13,16,9.20
2023,04,16,13,17,9.20
2023,04,16,13,18,9.20
2023,04,16,13,19,9.30
2023,04,16,13,20,9.20
2023,04,16,13,21,9.30
2023,04,16,13,22,9.30
2023,04,16,13,23,9.30
2023,04,16,13,24,9.30
2023,04,16,13,25,9.30
2023,04,16,13,26,9.30
2023,04,16,13,27,9.30
2023,04,16,13,28,9.30
2023,04,16,13,29,9.30
2023,04,16,13,30,9.30
2023,04,16,13,31,9.30
2023,04,16,13,32,9.30
2023,04,16,13,33,9.30
2023,04,16,13,34,9.30
2023,04,16,13,35,9.40
2023,04,16,13,36,9.40
2023,04,16,13,37,9.40
2023,04,16,13,38,9.50
2023,04,16,13,39,9.50
2023,04,16,13,40,9.60
2023,04,16,13,41,9.60
2023,04,16,13,42,9.60
2023,04,16,13,43,9.60
2023,04,16,13,44,9.70
2023,04,16,13,45,9.70
2023,04,16,13,46,9.80
2023,04,16,13,47,9.80
2023,04,16,13,48,9.80
2023,04,16,13,49,9.90
2023,04,16,13,50,9.90
2023,04,16,13,51,9.90
2023,04,16,13,52,9.90
2023,04,16,13,53,9.90
2023,04,16,13,54,9.90
2023,04,16,13,55,9.90
2023,04,16,13,56,9.90
2023,04,16,13,57,9.90
2023,04,16,13,58,9.90
2023,04,16,13,59,9.90
2023,04,16,14,00,10.00
2023,04,16,14,01,10.00
2023,04,16,14,02,10.00
2023,04,16,14,03,10.10
2023,04,16,14,04,10.10
2023,04,16,14,05,10.20
2023,04,16,14,06,10.20
2023,04,16,14,07,10.20
2023,04,16,14,08,10.20
2023,04,16,14,09,10.20
2023,04,16,14,10,10.30
2023,04,16,14,11,10.30
2023,04,16,14,12,10.30
2023,04,16,14,13,10.30
2023,04,16,14,14,10.20
2023,04,16,14,15,10.20
2023,04,16,14,16,10.20
2023,04,16,14,17,10.20
2023,04,16,14,18,10.20
2023,04,16,14,19,10.20
2023,04,16,14,20,10.20
2023,04,16,14,21,10.20
2023,04,16,14,22,10.20
2023,04,16,14,23,10.20
2023,04,16,14,24,10.20
2023,04,16,14,25,10.20
2023,04,16,14,26,10.30
2023,04,16,14,27,10.30
2023,04,16,14,28,10.30
2023,04,16,14,29,10.40
2023,04,16,14,30,10.40
2023,04,16,14,31,10.50
2023,04,16,14,32,10.50
2023,04,16,14,33,10.50
2023,04,16,14,34,10.50
2023,04,16,14,35,10.60
2023,04,16,14,36,10.80
2023,04,16,14,37,10.90
2023,04,16,14,38,11.00
2023,04,16,14,39,11.00
2023,04,16,14,40,11.10
2023,04,16,14,41,11.20
2023,04,16,14,42,11.20
2023,04,16,14,43,11.20
2023,04,16,14,44,11.20
2023,04,16,14,45,11.20
2023,04,16,14,46,11.20
2023,04,16,14,47,11.20
2023,04,16,14,48,11.20
2023,04,16,14,49,11.10
2023,04,16,14,50,11.10
2023,04,16,14,51,11.00
2023,04,16,14,52,11.00
2023,04,16,14,53,11.00
2023,04,16,14,54,11.00
2023,04,16,14,55,11.00
2023,04,16,14,56,11.00
2023,04,16,14,57,11.00
2023,04,16,14,58,11.10
2023,04,16,14,59,11.10
2023,04,16,15,00,11.10
2023,04,16,15,01,11.10
2023,04,16,15,02,11.10
2023,04,16,15,03,11.10
2023,04,16,15,04,11.10
2023,04,16,15,05,11.00
2023,04,16,15,06,11.00
2023,04,16,15,07,10.90
2023,04,16,15,08,10.90
2023,04,16,15,09,10.90
2023,04,16,15,10,10.90
2023,04,16,15,11,11.00
2023,04,16,15,12,11.10
2023,04,16,15,13,11.10
2023,04,16,15,14,11.20
2023,04,16,15,15,11.30
2023,04,16,15,16,11.40
2023,04,16,15,17,11.50
2023,04,16,15,18,11.50
2023,04,16,15,19,11.60
2023,04,16,15,20,11.60
2023,04,16,15,21,11.60
2023,04,16,15,22,11.50
2023,04,16,15,23,11.50
2023,04,16,15,24,11.40
2023,04,16,15,25,11.40
2023,04,16,15,26,11.40
2023,04,16,15,27,11.30
2023,04,16,15,28,11.30
2023,04,16,15,29,11.20
2023,04,16,15,30,11.20
2023,04,16,15,31,11.10
2023,04,16,15,32,11.00
2023,04,16,15,33,11.00
2023,04,16,15,34,10.90
2023,04,16,15,35,10.80
2023,04,16,15,36,10.70
2023,04,16,15,37,10.70
2023,04,16,15,38,10.60
2023,04,16,15,39,10.60
2023,04,16,15,40,10.50
2023,04,16,15,41,10.50
2023,04,16,15,42,10.40
2023,04,16,15,43,10.40
2023,04,16,15,44,10.30
2023,04,16,15,45,10.30
2023,04,16,15,46,10.30
2023,04,16,15,47,10.20
2023,04,16,15,48,10.20
2023,04,16,15,49,10.20
2023,04,16,15,50,10.20
2023,04,16,15,51,10.10
2023,04,16,15,52,10.10
2023,04,16,15,53,10.00
2023,04,16,15,54,10.00
2023,04,16,15,55,9.90
2023,04,16,15,56,9.90
2023,04,16,15,57,9.90
2023,04,16,15,58,9.90
2023,04,16,15,59,9.80
2023,04,16,16,00,9.80
2023,04,16,16,01,9.80
2023,04,16,16,02,9.80
2023,04,16,16,03,9.80
2023,04,16,16,04,9.70
2023,04,16,16,05,9.70
2023,04,16,16,06,9.70
2023,04,16,16,07,9.70
2023,04,16,16,08,9.60
2023,04,16,16,09,9.60
2023,04,16,16,10,9.60
2023,04,16,16,11,9.60
2023,04,16,16,12,9.60
2023,04,16,16,13,9.60
2023,04,16,16,14,9.60
2023,04,16,16,15,9.50
2023,04,16,16,16,9.50
2023,04,16,16,17,9.50
2023,04,16,16,18,9.50
2023,04,16,16,19,9.40
2023,04,16,16,20,9.40
2023,04,16,16,21,9.40
2023,04,16,16,22,9.40
2023,04,16,16,23,9.40
2023,04,16,16,24,9.40
2023,04,16,16,25,9.40
2023,04,16,16,26,9.50
2023,04,16,16,27,9.40
2023,04,16,16,28,9.50
2023,04,16,16,29,9.50
2023,04,16,16,30,9.50
2023,04,16,16,31,9.50
2023,04,16,16,32,9.60
2023,04,16,16,33,9.60
2023,04,16,16,34,9.60
2023,04,16,16,35,9.60
2023,04,16,16,36,9.60
2023,04,16,16,37,9.60
2023,04,16,16,38,9.60
2023,04,16,16,39,9.60
2023,04,16,16,40,9.60
2023,04,16,16,41,9.70
2023,04,16,16,42,9.70
2023,04,16,16,43,9.80
2023,04,16,16,44,9.80
2023,04,16,16,45,9.80
2023,04,16,16,46,9.80
2023,04,16,16,47,9.80
2023,04,16,16,48,9.80
2023,04,16,16,49,9.80
2023,04,16,16,50,9.80
2023,04,16,16,51,9.70
2023,04,16,16,52,9.70
2023,04,16,16,53,9.70
2023,04,16,16,54,9.70
2023,04,16,16,55,9.70
2023,04,16,16,56,9.60
2023,04,16,16,57,9.60
2023,04,16,16,58,9.50
2023,04,16,16,59,9.40
2023,04,16,17,00,9.40
2023,04,16,17,01,9.40
2023,04,16,17,02,9.30
2023,04,16,17,03,9.30
2023,04,16,17,04,9.30
2023,04,16,17,05,9.30
2023,04,16,17,06,9.30
2023,04,16,17,07,9.30
2023,04,16,17,08,9.20
2023,04,16,17,09,9.20
2023,04,16,17,10,9.10
2023,04,16,17,11,9.10
2023,04,16,17,12,9.10
2023,04,16,17,13,9.00
2023,04,16,17,14,9.00
2023,04,16,17,15,8.90
2023,04,16,17,16,8.90
2023,04,16,17,17,8.80
2023,04,16,17,18,8.80
2023,04,16,17,19,8.80
2023,04,16,17,20,8.70
2023,04,16,17,21,8.70
2023,04,16,17,22,8.60
2023,04,16,17,23,8.60
2023,04,16,17,24,8.50
2023,04,16,17,25,8.50
2023,04,16,17,26,8.40
2023,04,16,17,27,8.40
2023,04,16,17,28,8.40
2023,04,16,17,29,8.40
2023,04,16,17,30,8.40
2023,04,16,17,31,8.40
2023,04,16,17,32,8.40
2023,04,16,17,33,8.40
2023,04,16,17,34,8.40
2023,04,16,17,35,8.40
2023,04,16,17,36,8.40
2023,04,16,17,37,8.40
2023,04,16,17,38,8.40
2023,04,16,17,39,8.40
2023,04,16,17,40,8.40
2023,04,16,17,41,8.40
2023,04,16,17,42,8.40
2023,04,16,17,43,8.50
2023,04,16,17,44,8.50
2023,04,16,17,45,8.60
2023,04,16,17,46,8.60
2023,04,16,17,47,8.70
2023,04,16,17,48,8.70
2023,04,16,17,49,8.70
2023,04,16,17,50,8.70
2023,04,16,17,51,8.70
2023,04,16,17,52,8.70
2023,04,16,17,53,8.70
2023,04,16,17,54,8.70
2023,04,16,17,55,8.70
2023,04,16,17,56,8.70
2023,04,16,17,57,8.70
2023,04,16,17,58,8.70
2023,04,16,17,59,8.70
2023,04,16,18,00,8.70
2023,04,16,18,01,8.70